Location: Zagreb
(45.8000°N, 16.0000°E)
Time: 18:37:00
(UTC+02:00)

Tiros 1 despin weight - Pass Details

Date: 17 August 2022
Orbit: 591 x 638 km, 48.2° (Epoch: 06 October)

Event Time Altitude Azimuth Distance (km) Brightness Sun altitude
Rises 12:52:47 0° 263° (W) 2,867 ? 57.5°
Reaches altitude 10° 12:55:06 10° 266° (W) 1,955 ? 57.5°
Maximum altitude 12:59:34 70° 350° (N) 643 ? 57.5°
Drops below altitude 10° 13:04:00 10° 75° (ENE) 1,931 ? 57.5°
Sets 13:06:17 0° 78° (ENE) 2,829 ? 57.5°
